[[{"header":{"parameterUnit":"m.s-1","parameterCategory":1,"la1":30.2991,"la2":30.254,"lo1":-89.0895,"lo2":-89.0444,"dy":0.0017,"dx":0.0017,"nx":28,"ny":28,"refTime":"2025-08-18T21:00:00:Z","depth":0,"parameterNumber":2,"parameterNumberName":"U-component_of_WINDS"},"data":[0,0,0,0,0,0,0,0,0,0,0,0,0,0,0,0,0,0,0,0,0,0,0,0,0,0,0,0,0,0,0,0,0,0,0,0,0,0,0,0,0,0,0,0,0,0,0,0,0,0,0,0,0,0,0,0,0,0,-0.4102,-0.4101,0,-0.4034,-0.4033,-0.4032,-0.3985,-0.3985,-0.3985,-0.3984,-0.3914,-0.3913,-0.3911,0,0,0,0,0,0,0,0,0,0,0,0,0,-0.4194,-0.4192,-0.4102,-0.4101,-0.41,-0.4034,-0.4033,-0.4032,-0.3985,-0.3985,-0.3985,-0.3984,-0.3915,-0.3913,-0.3911,0,0,0,0,0,0,0,0,0,0,0,0,0,-0.4142,-0.4192,-0.4102,-0.4069,-0.4065,-0.4034,-0.4033,-0.4032,-0.3985,-0.3985,-0.3984,-0.3984,-0.3916,-0.3913,-0.3911,-0.3907,0,0,-0.3904,-0.3903,0,0,0,0,0,0,0,0,-0.4145,-0.4139,-0.4075,-0.4071,-0.4067,-0.4017,-0.4039,-0.399,-0.3986,-0.4016,-0.3984,-0.3984,-0.3949,-0.3944,-0.3932,-0.3904,-0.3901,-0.3904,-0.3902,-0.3901,-0.3901,0,0,0,0,0,0,0,-0.4149,-0.4142,-0.4075,-0.4074,-0.4069,-0.4058,-0.405,-0.403,-0.3986,-0.4013,-0.401,-0.4002,-0.3947,-0.3935,-0.393,-0.39,-0.3904,-0.3902,-0.39,-0.3899,-0.3868,-0.3868,0,0,0,0,0,0,-0.4158,-0.4145,-0.4077,-0.4073,-0.4106,-0.4057,-0.4048,-0.4034,-0.3986,-0.3978,-0.4003,-0.4,-0.3939,-0.3933,-0.3928,-0.3922,-0.3901,-0.3899,-0.3898,-0.3867,-0.3868,-0.3868,0,0,0,0,0,0,-0.416,-0.4152,-0.408,-0.4108,-0.4098,-0.4056,-0.404,-0.4033,-0.402,-0.3978,-0.397,-0.3998,-0.3938,-0.3931,-0.3913,-0.3919,-0.3898,-0.3896,-0.3866,-0.3867,-0.3868,-0.3909,0,0,0,0,0,0,-0.4163,-0.4153,-0.415,-0.4108,-0.4097,-0.4066,-0.404,-0.4032,-0.4017,-0.4013,-0.3972,-0.3965,-0.3937,-0.3917,-0.3911,-0.3915,-0.3894,-0.3866,-0.3867,-0.3868,-0.3907,-0.3911,-0.3915,0,0,0,0,0,-0.4166,-0.4164,-0.415,-0.4142,-0.4092,-0.4066,-0.4059,-0.4028,-0.4017,-0.4015,-0.3988,-0.3966,-0.3919,-0.3916,-0.3908,-0.3912,-0.3865,-0.3867,-0.3868,-0.3905,-0.391,-0.3915,0,0,0,0,0,0,-0.4207,-0.4158,-0.4142,-0.4126,-0.4101,-0.4058,-0.4054,-0.4034,-0.4011,-0.4008,-0.397,-0.3962,-0.3948,-0.3928,-0.3925,-0.3907,-0.389,-0.389,-0.3921,-0.3925,-0.3929,-0.3934,-0.3892,0,0,0,0,0,-0.4214,-0.4197,-0.4155,-0.4145,-0.4133,-0.4096,-0.4083,-0.4062,-0.4034,-0.4023,-0.3994,-0.3969,-0.3948,-0.3936,-0.3914,-0.3904,-0.3896,-0.3903,-0.3907,-0.3911,-0.3911,-0.3907,-0.3911,-0.3872,-0.3872,-0.3872,0,0,-0.4228,-0.4199,-0.419,-0.4152,-0.413,-0.4114,-0.4087,-0.407,-0.4058,-0.402,-0.4002,-0.3981,-0.395,-0.3937,-0.3929,-0.3919,-0.392,-0.3912,-0.3915,-0.3914,-0.3909,-0.3913,-0.3916,-0.3873,-0.3873,-0.3873,0,0,-0.4247,-0.4222,-0.4213,-0.4192,-0.4159,-0.4135,-0.4133,-0.4094,-0.4079,-0.406,-0.4032,-0.4018,-0.3983,-0.3963,-0.3948,-0.3962,-0.3942,-0.3956,-0.3977,-0.3973,-0.3976,-0.3979,-0.3986,-0.3989,-0.3957,-0.3957,-0.3957,0,-0.4269,-0.4243,-0.421,-0.4196,-0.4181,-0.4147,-0.4138,-0.4119,-0.4081,-0.4072,-0.4061,-0.4019,-0.3995,-0.3978,-0.3982,-0.3971,-0.3968,-0.3961,-0.3979,-0.3981,-0.3983,-0.3989,-0.3992,-0.3959,-0.3959,-0.3959,-0.3959,0,-0.4272,-0.4255,-0.4251,-0.4217,-0.4202,-0.419,-0.4157,-0.4145,-0.4126,-0.4103,-0.4087,-0.4058,-0.4031,-0.4026,-0.4005,-0.4007,-0.4002,-0.3986,-0.3967,-0.3989,-0.3995,-0.3997,-0.3962,-0.3962,-0.3961,-0.396,0,0,-0.4312,-0.4262,-0.4262,-0.4247,-0.421,-0.4196,-0.4185,-0.4159,-0.4151,-0.4127,-0.4117,-0.409,-0.4076,-0.4059,-0.4037,-0.4034,-0.405,-0.4018,-0.4017,-0.4027,-0.4053,-0.4066,-0.4069,-0.4037,-0.4037,-0.4037,-0.4056,0,-0.4326,-0.4302,-0.4274,-0.4261,-0.4246,-0.4215,-0.4205,-0.4182,-0.4162,-0.4147,-0.4124,-0.4106,-0.4088,-0.4078,-0.4073,-0.4049,-0.4055,-0.4047,-0.4028,-0.4028,-0.4038,-0.4072,-0.4085,-0.4104,-0.4058,-0.4058,-0.4058,0,-0.4338,-0.4317,-0.4303,-0.427,-0.4263,-0.4254,-0.4231,-0.4216,-0.4191,-0.4176,-0.416,-0.4136,-0.4124,-0.4108,-0.4091,-0.4087,-0.4077,-0.4065,-0.4065,-0.4062,-0.4045,-0.4072,-0.4109,-0.4113,-0.4061,-0.4061,-0.4061,0,-0.4371,-0.4339,-0.4327,-0.4315,-0.4276,-0.4271,-0.4255,-0.4229,-0.4217,-0.4196,-0.4189,-0.4167,-0.4155,-0.414,-0.4113,-0.4103,-0.41,-0.4081,-0.4089,-0.409,-0.409,-0.409,-0.4128,-0.4082,-0.4082,-0.4082,-0.4082,0,-0.4389,-0.4382,-0.4342,-0.4334,-0.4326,-0.4295,-0.4288,-0.4269,-0.4247,-0.4236,-0.4208,-0.4199,-0.4163,-0.415,-0.4128,-0.412,-0.4114,-0.4103,-0.4098,-0.4106,-0.4108,-0.41,-0.4099,-0.4083,-0.4082,-0.4082,-0.4082,0,-0.4424,-0.4396,-0.4382,-0.4347,-0.4339,-0.4335,-0.4305,-0.4298,-0.4277,-0.4265,-0.426,-0.4227,-0.4211,-0.4182,-0.4157,-0.4143,-0.4139,-0.4129,-0.4148,-0.4145,-0.4155,-0.4156,-0.419,-0.4194,-0.4145,-0.4145,-0.4146,0,-0.4438,-0.4432,-0.4398,-0.4389,-0.4374,-0.436,-0.4349,-0.4319,-0.4308,-0.428,-0.4277,-0.4259,-0.4243,-0.4218,-0.4193,-0.4175,-0.4165,-0.4178,-0.4161,-0.4172,-0.4167,-0.4168,-0.4169,-0.4182,-0.4183,-0.4183,-0.4184,0,-0.4466,-0.4454,-0.4438,-0.4418,-0.4406,-0.4389,-0.437,-0.4365,-0.4331,-0.4321,-0.4304,-0.4292,-0.4268,-0.4251,-0.423,-0.4214,-0.4194,-0.4189,-0.4191,-0.42,-0.4212,-0.4208,-0.416,-0.4188,-0.4188,-0.4188,-0.4187,-0.4187,-0.4491,-0.4486,-0.4462,-0.4447,-0.443,-0.4415,-0.4407,-0.4387,-0.4373,-0.4351,-0.4335,-0.4321,-0.4298,-0.4268,-0.4253,-0.4243,-0.4233,-0.4234,-0.4235,-0.4236,-0.424,-0.4213,-0.4238,-0.4238,-0.4238,-0.4238,-0.4238,0,-0.452,-0.4504,-0.449,-0.4466,-0.4455,-0.4438,-0.4418,-0.4409,-0.4397,-0.4378,-0.4364,-0.4347,-0.4332,-0.4306,-0.4289,-0.4285,-0.4276,-0.4282,-0.4282,-0.428,-0.4249,-0.425,-0.429,-0.429,-0.429,-0.429,-0.429,-0.429,-0.4533,-0.4524,-0.451,-0.4493,-0.4477,-0.4464,-0.4454,-0.4441,-0.4426,-0.4408,-0.4396,-0.438,-0.4359,-0.434,-0.4326,-0.4319,-0.4315,-0.4324,-0.4315,-0.4286,-0.4281,-0.4277,-0.4278,-0.4323,-0.4323,-0.4347,-0.4347,-0.4347]},{"header":{"parameterUnit":"m.s-1","parameterCategory":1,"la1":30.2991,"la2":30.254,"lo1":-89.0895,"lo2":-89.0444,"dy":0.0017,"dx":0.0017,"nx":28,"ny":28,"refTime":"2025-08-18T21:00:00:Z","depth":0,"parameterNumber":3,"parameterNumberName":"V-component_of_WINDS"},"data":[0,0,0,0,0,0,0,0,0,0,0,0,0,0,0,0,0,0,0,0,0,0,0,0,0,0,0,0,0,0,0,0,0,0,0,0,0,0,0,0,0,0,0,0,0,0,0,0,0,0,0,0,0,0,0,0,0,0,3.3186,3.3187,0,3.3235,3.3236,3.3236,3.3292,3.3293,3.3293,3.3294,3.334,3.334,3.3341,0,0,0,0,0,0,0,0,0,0,0,0,0,3.3135,3.3136,3.3186,3.3187,3.3187,3.3235,3.3236,3.3237,3.3292,3.3293,3.3294,3.3295,3.334,3.334,3.3341,0,0,0,0,0,0,0,0,0,0,0,0,0,3.3168,3.3136,3.3186,3.3221,3.3224,3.3235,3.3236,3.3237,3.3291,3.3293,3.3294,3.3295,3.334,3.334,3.3341,3.332,0,0,3.3343,3.3343,0,0,0,0,0,0,0,0,3.3166,3.317,3.3215,3.3218,3.3222,3.3259,3.3235,3.3264,3.3291,3.3266,3.3294,3.3296,3.3312,3.3315,3.3321,3.3322,3.3324,3.3343,3.3344,3.3344,3.3344,0,0,0,0,0,0,0,3.3164,3.3168,3.3205,3.3216,3.322,3.3232,3.3238,3.3241,3.3281,3.3268,3.3272,3.3278,3.3314,3.332,3.3323,3.3325,3.3343,3.3344,3.3344,3.3344,3.3309,3.3308,0,0,0,0,0,0,3.3157,3.3166,3.3204,3.3207,3.3197,3.3232,3.3239,3.3246,3.3281,3.3288,3.3276,3.328,3.3319,3.3322,3.3324,3.3301,3.3344,3.3344,3.3345,3.3311,3.3309,3.3308,0,0,0,0,0,0,3.3155,3.316,3.3202,3.3187,3.3194,3.3232,3.3239,3.3246,3.3253,3.3288,3.3295,3.3276,3.332,3.3323,3.3321,3.3303,3.3345,3.3345,3.3312,3.331,3.3308,3.3254,0,0,0,0,0,0,3.3154,3.3159,3.3153,3.3187,3.3194,3.3199,3.3238,3.3246,3.3254,3.3259,3.3289,3.3295,3.3321,3.3319,3.3321,3.3305,3.3346,3.3314,3.3311,3.3309,3.3257,3.325,3.3244,0,0,0,0,0,3.3152,3.3135,3.3152,3.3156,3.3187,3.3198,3.3202,3.3233,3.3253,3.3245,3.3268,3.3294,3.3305,3.3319,3.3321,3.3304,3.3315,3.3312,3.3309,3.326,3.3251,3.3244,0,0,0,0,0,0,3.3096,3.314,3.3159,3.3153,3.3171,3.3207,3.3199,3.3223,3.3235,3.3239,3.3277,3.3283,3.3275,3.329,3.3304,3.3285,3.3314,3.3311,3.3276,3.3268,3.3261,3.3257,3.3346,0,0,0,0,0,3.3083,3.3089,3.3127,3.3118,3.3126,3.3161,3.3166,3.3189,3.3209,3.3216,3.3239,3.3255,3.3262,3.3266,3.3275,3.326,3.3266,3.325,3.3243,3.3238,3.3234,3.3225,3.3218,3.3298,3.3298,3.3298,0,0,3.3056,3.3081,3.3082,3.3107,3.3124,3.3127,3.3167,3.3169,3.3172,3.3216,3.3215,3.3231,3.3253,3.3243,3.324,3.3255,3.3214,3.3234,3.3229,3.3229,3.3222,3.3214,3.3207,3.3296,3.3296,3.3296,0,0,3.3008,3.3029,3.3023,3.3039,3.3064,3.3087,3.3086,3.3117,3.313,3.313,3.3163,3.3166,3.3178,3.3191,3.3199,3.3156,3.3179,3.3158,3.3122,3.3113,3.3107,3.3101,3.3084,3.3077,3.3155,3.3154,3.3154,0,3.2971,3.298,3.3016,3.3016,3.3025,3.3067,3.306,3.3073,3.3099,3.3103,3.3121,3.3136,3.3153,3.3146,3.3136,3.3142,3.3139,3.3153,3.3105,3.31,3.3095,3.3079,3.3072,3.3151,3.3152,3.3152,3.3152,0,3.2931,3.2936,3.2928,3.2953,3.2961,3.2958,3.2992,3.2995,3.3017,3.3038,3.3036,3.3058,3.3071,3.3072,3.3093,3.3068,3.3076,3.3099,3.3128,3.3084,3.3069,3.3063,3.3147,3.3148,3.3149,3.315,0,0,3.2849,3.2894,3.289,3.2901,3.2932,3.2936,3.2933,3.2948,3.2949,3.2965,3.2962,3.2972,3.2993,3.3002,3.3025,3.3017,3.2979,3.3041,3.3042,3.3026,3.2949,3.293,3.2922,3.2995,3.2994,3.2994,3.2946,0,3.2805,3.2805,3.2837,3.2827,3.283,3.287,3.2868,3.2885,3.2904,3.2909,3.293,3.2935,3.2964,3.2969,3.2964,3.2984,3.2963,3.2989,3.2991,3.299,3.2982,3.2915,3.2895,3.285,3.2941,3.294,3.2939,0,3.2754,3.2768,3.2758,3.2788,3.2791,3.2788,3.2803,3.2808,3.2828,3.2842,3.2852,3.2879,3.2876,3.2905,3.2901,3.2918,3.2921,3.2931,3.293,3.2929,3.2961,3.291,3.2836,3.2828,3.2931,3.2932,3.2932,0,3.2692,3.2709,3.2704,3.2713,3.2748,3.2745,3.2759,3.2781,3.2787,3.2799,3.2803,3.2815,3.282,3.2828,3.2856,3.2875,3.2847,3.2879,3.2857,3.2856,3.2848,3.2848,3.2771,3.2854,3.2854,3.2854,3.2854,0,3.2638,3.263,3.2677,3.2674,3.2665,3.2702,3.2692,3.271,3.2729,3.2728,3.2764,3.2763,3.2801,3.2804,3.2826,3.2818,3.2821,3.283,3.2836,3.2826,3.2824,3.2827,3.283,3.2852,3.2852,3.2853,3.2853,0,3.2566,3.2598,3.2596,3.263,3.2638,3.263,3.2658,3.2656,3.2677,3.2677,3.2679,3.2712,3.2717,3.2746,3.2758,3.2772,3.2755,3.2768,3.2748,3.2752,3.2727,3.2728,3.2647,3.2637,3.2728,3.2727,3.2727,0,3.2529,3.2524,3.2557,3.256,3.2573,3.2578,3.2584,3.262,3.2624,3.2646,3.2641,3.2649,3.2657,3.2662,3.2686,3.2694,3.2706,3.2678,3.2708,3.2697,3.2703,3.2702,3.27,3.267,3.2669,3.2668,3.2667,0,3.2459,3.2474,3.2483,3.2496,3.2503,3.2515,3.2529,3.2529,3.2568,3.2572,3.2577,3.2584,3.2595,3.2602,3.2614,3.2627,3.2652,3.2658,3.2653,3.2641,3.2629,3.2633,3.2728,3.2659,3.266,3.2661,3.2661,3.2661,3.2402,3.2398,3.2421,3.2428,3.2443,3.2455,3.2454,3.2476,3.2482,3.2495,3.2515,3.2518,3.2536,3.2556,3.2567,3.2568,3.2583,3.2576,3.2574,3.2571,3.2565,3.2631,3.257,3.2571,3.2571,3.2571,3.2571,0,3.2331,3.2347,3.2354,3.2373,3.2378,3.2404,3.2421,3.2423,3.2425,3.2441,3.2448,3.2454,3.246,3.2485,3.2493,3.2489,3.2501,3.249,3.2489,3.2491,3.2552,3.2554,3.248,3.248,3.248,3.248,3.248,3.248,3.2294,3.2289,3.2307,3.2309,3.2325,3.2329,3.2335,3.2346,3.2359,3.2364,3.237,3.2386,3.2405,3.2415,3.2421,3.2428,3.2428,3.2413,3.2423,3.2479,3.2488,3.2496,3.2498,3.2414,3.2413,3.2363,3.2362,3.2362]}]]